Weather History for KLAA - July, 2013

Change the Weather History Date:

Monday, July 1, 2013

  Actual Average Record
Temperature  
Mean Temperature 68 °F 76 °F  
Max Temperature 79 °F 92 °F 108 °F (1997)
Min Temperature 56 °F 60 °F 46 °F (1947)
Degree Days  
Heating Degree Days 0 0  
Month to date heating degree days 0 0  
Since 1 June heating degree days 16 20  
Since 1 July heating degree days 0 0  
Cooling Degree Days 3 11  
Month to date cooling degree days 3 11  
Year to date cooling degree days 526 291  
Since 1 June cooling degree days 385 231  
Growing Degree Days 18 (Base 50)    
Moisture  
Dew Point 54 °F    
Average Humidity 64    
Maximum Humidity 93    
Minimum Humidity 35    
Precipitation  
Precipitation 0.14 in 0.08 in 1.17 in (2005)
Month to date precipitation 0.14 0.08  
Year to date precipitation 2.95 7.28  
Sea Level Pressure  
Sea Level Pressure 30.14 in    
Wind  
Wind Speed 4 mph (SE)    
Max Wind Speed 13 mph    
Max Gust Speed 16 mph    
Visibility 7 miles    
Events Rain    
T = Trace of Precipitation, MM = Missing Value Source: NWS Daily Summary

Daily Weather History Graph

Daily Weather History Graph

Search for Another Location

Airport or City:

Trip Planner

Search our weather history database for the weather conditions in past years. The results will help you decide how hot, cold, wet, or windy it might be!

Date:

Astronomy

Jul. 01, 2013 Rise Set
Actual Time 5:31 AM MDT 8:17 PM MDT
Civil Twilight 5:00 AM MDT 8:48 PM MDT
Nautical Twilight 4:21 AM MDT 9:28 PM MDT
Astronomical Twilight 3:36 AM MDT 10:12 PM MDT
Moon 12:59 AM MDT (7/1) 2:37 PM MDT (7/1)
Length of Visible Light 15h 48m
Length of Day
14h 45m
Waning Crescent, 35% of the Moon is Illuminated
Jul 1
Waning Crescent
Jul 8
New
Jul 15
First Quarter
Jul 22
Full
Jul 29
Last Quarter

Hourly Weather History & Observations

Time (MDT) Temp. Dew Point Humidity Pressure Visibility Wind Dir Wind Speed Gust Speed Precip Events Conditions
12:53 AM 62.1 °F 57.9 °F 86% 30.09 in 10.0 mi NE 5.8 mph - N/A   Clear
1:53 AM 59.0 °F 55.9 °F 90% 30.10 in 8.0 mi SW 5.8 mph - N/A   Clear
2:53 AM 57.9 °F 55.9 °F 93% 30.11 in 7.0 mi SSW 3.5 mph - N/A   Clear
3:53 AM 57.0 °F 55.0 °F 93% 30.10 in 6.0 mi South 3.5 mph - N/A   Partly Cloudy
4:53 AM 57.0 °F 55.0 °F 93% 30.11 in 5.0 mi East 5.8 mph - N/A   Scattered Clouds
5:53 AM 57.0 °F 55.0 °F 93% 30.12 in 4.0 mi East 5.8 mph - N/A   Mostly Cloudy
6:53 AM 57.9 °F 51.1 °F 78% 30.15 in 6.0 mi ENE 9.2 mph - N/A   Haze
7:48 AM 57.2 °F 53.6 °F 88% 30.28 in 2.0 mi South 5.8 mph - 0.08 in Rain Rain
7:53 AM 57.0 °F 53.1 °F 87% 30.18 in 2.0 mi South 5.8 mph - 0.09 in Rain Rain
8:06 AM 57.2 °F 53.6 °F 88% 30.28 in 5.0 mi East 8.1 mph - 0.01 in Rain Light Rain
8:53 AM 57.9 °F 54.0 °F 87% 30.19 in 3.0 mi East 3.5 mph - 0.03 in Rain Light Rain
9:53 AM 59.0 °F 55.0 °F 87% 30.19 in 5.0 mi South 3.5 mph - 0.02 in Rain Light Rain
10:53 AM 60.1 °F 55.9 °F 86% 30.19 in 6.0 mi SSW 5.8 mph - 0.00 in   Overcast
11:53 AM 64.9 °F 55.9 °F 73% 30.17 in 9.0 mi Variable 3.5 mph - N/A   Clear
12:53 PM 68.0 °F 55.9 °F 65% 30.16 in 9.0 mi South 3.5 mph - N/A   Clear
1:53 PM 72.0 °F 55.9 °F 57% 30.15 in 10.0 mi Variable 3.5 mph - N/A   Clear
2:53 PM 73.0 °F 55.9 °F 55% 30.13 in 9.0 mi Calm Calm - N/A   Clear
3:53 PM 75.9 °F 54.0 °F 46% 30.10 in 10.0 mi Variable 3.5 mph - N/A   Mostly Cloudy
4:53 PM 78.1 °F 48.9 °F 36% 30.09 in 10.0 mi Variable 3.5 mph - N/A   Clear
5:53 PM 77.0 °F 51.1 °F 40% 30.09 in 10.0 mi NNW 5.8 mph - N/A   Scattered Clouds
6:53 PM 75.9 °F 53.1 °F 45% 30.09 in 8.0 mi NW 5.8 mph - N/A   Scattered Clouds
7:53 PM 73.9 °F 55.0 °F 52% 30.09 in 8.0 mi Calm Calm - N/A   Clear
8:53 PM 72.0 °F 55.9 °F 57% 30.10 in 9.0 mi Calm Calm - N/A   Scattered Clouds
9:53 PM 71.1 °F 53.1 °F 53% 30.13 in 10.0 mi SE 4.6 mph - N/A   Overcast
10:53 PM 68.0 °F 51.1 °F 55% 30.14 in 10.0 mi SE 6.9 mph - N/A   Mostly Cloudy
11:53 PM 64.9 °F 51.1 °F 61% 30.15 in 9.0 mi East 5.8 mph - N/A   Partly Cloudy